Zurück zum Katalog

STARLINK-11225

AktivKommunikationVLEO
NORAD 60912·PAYLOAD·🇺🇸 United States

Gestartet Aug 31, 2024 von Cape Canaveral Space Force Station

Loading…

Nächste Überflüge (nächste 24 Stunden)

TLE

AktuellSource: CelesTrak SupGP

Epoche: Sep 14, 2026, 15:04 UTC

1 60912C 24154K   26257.62826389  .00030966  00000+0  25513-3 0  2579
2 60912  53.1570 279.8307 0001217  72.4912 148.5358 15.69689502    19

Verfolge STARLINK-11225 in Echtzeit mit AllMySat

Download on the App Store